This is the latest recevied weather packets stored in our database for station/object DJ6OI-23. If no packets are shown the sender has not sent any weather packets the latest 10 day(s).
| Time | Temp. | Humidity | Pressure | Rain* | Wind** | Luminosity | Snow |
|---|---|---|---|---|---|---|---|
| 1777454802 | 13.89° C | 36% | 1006.9 hPa | 0 mm | - | - | - |
| 1777453867 | 13.33° C | 35% | 1007.1 hPa | 0 mm | - | - | - |
| 1777452932 | 12.78° C | 36% | 1007 hPa | 0 mm | - | - | - |
| 1777451997 | 12.78° C | 37% | 1006.8 hPa | 0 mm | - | - | - |
| 1777451062 | 12.22° C | 39% | 1006.8 hPa | 0 mm | - | - | - |
| 1777450127 | 11.67° C | 39% | 1006.8 hPa | 0 mm | - | - | - |
| 1777449193 | 11.67° C | 40% | 1006.9 hPa | 0 mm | - | - | - |
| 1777448258 | 11.11° C | 40% | 1006.8 hPa | 0 mm | - | - | - |
| 1777447323 | 10.56° C | 41% | 1006.6 hPa | 0 mm | - | - | - |
| 1777446388 | 10° C | 42% | 1006.4 hPa | 0 mm | - | - | - |
| 1777445453 | 9.44° C | 44% | 1006.4 hPa | 0 mm | - | - | - |
| 1777444518 | 8.89° C | 45% | 1006.4 hPa | 0 mm | - | - | - |
| 1777443583 | 8.33° C | 47% | 1006.3 hPa | 0 mm | - | - | - |
| 1777442648 | 7.78° C | 50% | 1006.2 hPa | 0 mm | - | - | - |
| 1777441713 | 7.22° C | 52% | 1006 hPa | 0 mm | - | - | - |
| 1777440778 | 6.67° C | 52% | 1006 hPa | 0 mm | - | - | - |
| 1777439843 | 5.56° C | 55% | 1005.9 hPa | 0 mm | - | - | - |
| 1777438909 | 4.44° C | 58% | 1005.8 hPa | 0 mm | - | - | - |
| 1777437974 | 3.89° C | 60% | 1005.7 hPa | 0 mm | - | - | - |
| 1777437039 | 3.89° C | 60% | 1005.5 hPa | 0 mm | - | - | - |
| 1777436104 | 3.33° C | 61% | 1005.6 hPa | 0 mm | - | - | - |
| 1777435169 | 3.33° C | 61% | 1005.5 hPa | 0 mm | - | - | - |
| 1777434234 | 3.33° C | 60% | 1005.5 hPa | 0 mm | - | - | - |
| 1777433299 | 3.33° C | 59% | 1005.4 hPa | 0 mm | - | - | - |
| 1777432364 | 3.89° C | 58% | 1005.4 hPa | 0 mm | - | - | - |
* Rain latest hour (hover to see other rain measurements)
** Current wind speed in m/s (hover to see current wind gust speed)